Le nostre stazioni meteo in Italia

Pubblicità
Il mio iltempo24.it
Lamezia Terme, Italia (16362): Temperatura & dewpoint: 15.02.2020 04:00:00 - 21.02.2020 04:00:00 (CET)Lamezia Terme, Italia (16362): velocità del vento: 15.02.2020 04:00:00 - 21.02.2020 04:00:00 (CET)Lamezia Terme, Italia (16362): direzione del vento: 15.02.2020 04:00:00 - 21.02.2020 04:00:00 (CET)Lamezia Terme, Italia (16362): reduced air pressure: 15.02.2020 04:00:00 - 21.02.2020 04:00:00 (CET)Lamezia Terme, Italia (16362): visibility: 15.02.2020 04:00:00 - 21.02.2020 04:00:00 (CET)Lamezia Terme, Italia (16362): precipitazioni: 15.02.2020 04:00:00 - 21.02.2020 04:00:00 (CET)
Data & Tempo tt [°C] td [°C] ff [km/h] ff [kn] dd ppp [hPa] vv [km] rr [mm]
21.02.2020 04:00:00 - - - - - - - -
21.02.2020 03:00:00 2,0 -1,0 9 5 E - 10 -
21.02.2020 02:00:00 2,0 -1,0 8 4 ENE - 10 -
21.02.2020 01:00:00 3,3 0,2 2 1 N 1023,4 10 -
21.02.2020 00:00:00 5,0 0,0 5 3 E - 10 -
20.02.2020 23:00:00 6,0 1,0 11 6 ESE - 10 -
20.02.2020 22:00:00 8,6 -0,8 8 4 N 1022,9 10 0,0
20.02.2020 21:00:00 8,0 2,0 8 4 ESE - 10 -
20.02.2020 20:00:00 - - - - - - - -
20.02.2020 19:00:00 12,1 4,3 5 3 N 1021,6 10 -
20.02.2020 18:00:00 14,0 5,0 28 15 O - 10 -
20.02.2020 17:00:00 15,0 3,0 28 15 O - 10 -
20.02.2020 16:00:00 15,3 5,4 24 13 O 1019,8 10 0,0
20.02.2020 15:00:00 - - - - - - - -
20.02.2020 14:00:00 15,0 5,0 31 17 O - 10 -
20.02.2020 13:00:00 15,1 5,7 34 18 O 1020,0 15 -
20.02.2020 12:00:00 15,0 5,0 29 16 O - 10 -
20.02.2020 11:00:00 15,0 6,0 28 15 O - 10 -
20.02.2020 10:00:00 14,1 6,8 24 13 O 1020,1 15 0,0
20.02.2020 09:00:00 13,0 7,0 21 11 O - 10 -
20.02.2020 08:00:00 - - - - - - - -
20.02.2020 07:00:00 10,0 7,4 5 3 O 1018,9 15 -
20.02.2020 06:00:00 11,0 8,0 13 7 OSO - 10 -
20.02.2020 05:00:00 12,0 9,0 18 10 O - 10 -
20.02.2020 04:00:00 12,3 9,1 18 10 O 1017,6 10 0,0
20.02.2020 03:00:00 13,0 10,0 24 13 O - 10 -
20.02.2020 02:00:00 13,0 9,0 26 14 OSO - 10 -
20.02.2020 01:00:00 11,1 9,3 9 5 O 1018,5 10 -
20.02.2020 00:00:00 11,0 9,0 26 14 O - 10 -
19.02.2020 23:00:00 13,0 8,0 39 21 O - 10 -
19.02.2020 22:00:00 13,2 8,4 29 16 O 1019,4 10 0,0
19.02.2020 21:00:00 14,0 11,0 37 20 O - 10 -
19.02.2020 20:00:00 14,0 11,0 29 16 O - 10 -
19.02.2020 19:00:00 14,0 11,4 28 15 O 1019,3 10 -
19.02.2020 18:00:00 13,0 11,0 16 9 O - 10 -
19.02.2020 17:00:00 13,0 11,0 18 10 OSO - 10 -
19.02.2020 16:00:00 14,1 10,4 21 11 O 1019,9 10 0,0
19.02.2020 15:00:00 15,0 10,0 29 16 O - 10 -
19.02.2020 14:00:00 14,0 12,0 26 14 O - 10 -
19.02.2020 13:00:00 14,6 11,4 24 13 OSO 1021,5 10 -
19.02.2020 12:00:00 15,0 11,0 22 12 OSO - 10 -
19.02.2020 11:00:00 13,0 11,0 9 5 S - 10 -
19.02.2020 10:00:00 13,2 10,5 5 3 O 1022,8 10 0,0
19.02.2020 09:00:00 - - - - - - - -
19.02.2020 08:00:00 13,0 10,0 15 8 SO - 10 -
19.02.2020 07:00:00 13,1 9,7 13 7 SO 1022,4 10 -
19.02.2020 06:00:00 13,0 9,0 16 9 SO - 10 -
19.02.2020 05:00:00 - - - - - - - -
19.02.2020 04:00:00 13,4 8,7 15 8 OSO 1022,6 10 0,0
19.02.2020 03:00:00 13,0 8,0 15 8 OSO - 10 -
19.02.2020 02:00:00 14,0 7,0 18 10 O - 10 -
19.02.2020 01:00:00 13,6 7,3 16 9 OSO 1023,4 10 -
19.02.2020 00:00:00 14,0 8,0 15 8 OSO - 10 -
18.02.2020 23:00:00 14,0 8,0 16 9 OSO - 10 -
18.02.2020 22:00:00 13,7 8,2 15 8 OSO 1023,9 10 0,0
18.02.2020 21:00:00 14,0 8,0 18 10 OSO - 10 -
18.02.2020 20:00:00 14,0 9,0 18 10 OSO - 10 -
18.02.2020 19:00:00 13,6 9,4 21 11 O 1023,6 10 -
18.02.2020 18:00:00 13,0 10,0 24 13 O - 10 -
18.02.2020 17:00:00 14,0 9,0 22 12 OSO - 10 -
18.02.2020 16:00:00 14,6 9,9 26 14 OSO 1022,9 10 0,0
18.02.2020 15:00:00 15,0 10,0 29 16 O - 10 -
18.02.2020 14:00:00 15,0 9,0 29 16 OSO - 10 -
18.02.2020 13:00:00 15,3 9,1 29 16 OSO 1024,0 10 -
18.02.2020 12:00:00 15,0 9,0 28 15 OSO - 10 -
18.02.2020 11:00:00 14,0 9,0 21 11 OSO - 10 -
18.02.2020 10:00:00 13,7 8,2 21 11 OSO 1025,5 10 0,0
18.02.2020 09:00:00 14,0 8,0 21 11 OSO - 10 -
18.02.2020 08:00:00 13,0 8,0 22 12 OSO - 10 -
18.02.2020 07:00:00 12,9 7,5 18 10 OSO 1024,8 10 -
18.02.2020 06:00:00 13,0 8,0 22 12 O - 10 -
18.02.2020 05:00:00 13,0 8,0 21 11 OSO - 10 -
18.02.2020 04:00:00 12,8 8,1 15 8 OSO 1025,1 10 0,0
18.02.2020 03:00:00 13,0 8,0 18 10 OSO - 10 -
18.02.2020 02:00:00 13,0 9,0 16 9 OSO - 10 -
18.02.2020 01:00:00 12,3 8,7 15 8 OSO 1026,0 10 -
18.02.2020 00:00:00 12,0 9,0 9 5 SSO - 10 -
17.02.2020 23:00:00 12,0 8,0 9 5 SO - 10 -
17.02.2020 22:00:00 12,0 8,4 11 6 OSO 1027,0 10 0,0
17.02.2020 21:00:00 - - - - - - - -
17.02.2020 20:00:00 13,0 9,0 15 8 OSO - 10 -
17.02.2020 19:00:00 13,2 8,3 13 7 OSO 1027,4 10 -
17.02.2020 18:00:00 13,0 7,0 13 7 SO - 10 -
17.02.2020 17:00:00 14,0 9,0 21 11 OSO - 10 -
17.02.2020 16:00:00 14,4 8,7 18 10 OSO 1026,8 10 0,0
17.02.2020 15:00:00 15,0 9,0 18 10 OSO - 10 -
17.02.2020 14:00:00 15,0 8,0 18 10 OSO - 10 -
17.02.2020 13:00:00 14,4 9,8 16 9 OSO 1028,3 10 -
17.02.2020 12:00:00 14,0 9,0 16 9 OSO - 10 -
17.02.2020 11:00:00 14,0 9,0 13 7 SO - 10 -
17.02.2020 10:00:00 13,3 8,9 11 6 SSO 1029,6 10 0,0
17.02.2020 09:00:00 10,0 9,0 4 2 ESE - 10 -
17.02.2020 08:00:00 6,0 6,0 8 4 E - 10 -
17.02.2020 07:00:00 4,2 4,2 8 4 ENE 1029,5 10 -
17.02.2020 06:00:00 4,0 4,0 11 6 E - 10 -
17.02.2020 05:00:00 5,0 5,0 9 5 E - 10 -
17.02.2020 04:00:00 5,0 5,0 9 5 E 1029,6 10 0,0
17.02.2020 03:00:00 7,0 7,0 8 4 E - 10 -
17.02.2020 02:00:00 8,0 7,0 9 5 ENE - 10 -
17.02.2020 01:00:00 6,9 6,9 9 5 ENE 1030,3 10 -
17.02.2020 00:00:00 7,0 7,0 9 5 E - 10 -
16.02.2020 23:00:00 9,0 8,0 5 3 ENE - 10 -
16.02.2020 22:00:00 8,7 8,4 9 5 E 1030,5 10 0,0
16.02.2020 21:00:00 10,0 9,0 4 2 - - 10 -
16.02.2020 20:00:00 10,0 8,0 4 2 - - 10 -
16.02.2020 19:00:00 10,9 8,8 5 3 SSE 1029,8 10 -
16.02.2020 18:00:00 13,0 10,0 8 4 SO - 10 -
16.02.2020 17:00:00 15,0 10,0 13 7 OSO - 10 -
16.02.2020 16:00:00 15,3 10,3 16 9 OSO 1029,0 10 0,0
16.02.2020 15:00:00 15,0 10,0 18 10 O - 10 -
16.02.2020 14:00:00 15,0 9,0 15 8 O - 10 -
16.02.2020 13:00:00 15,2 9,5 13 7 OSO 1029,2 10 -
16.02.2020 12:00:00 15,0 10,0 15 8 OSO - 10 -
16.02.2020 11:00:00 15,0 10,0 11 6 SSO - 10 -
16.02.2020 10:00:00 14,4 8,7 4 2 N 1030,4 10 0,0
16.02.2020 09:00:00 10,0 8,0 11 6 ENE - 10 -
16.02.2020 08:00:00 6,0 6,0 11 6 ENE - 10 -
16.02.2020 07:00:00 3,9 3,9 13 7 ENE 1029,1 15 -
16.02.2020 06:00:00 4,0 4,0 11 6 ENE - 10 -
16.02.2020 05:00:00 4,0 4,0 13 7 ENE - 10 -
16.02.2020 04:00:00 4,1 4,0 9 5 ENE 1028,9 10 0,0
16.02.2020 03:00:00 5,0 4,0 11 6 E - 10 -
16.02.2020 02:00:00 4,0 4,0 11 6 ENE - 10 -
16.02.2020 01:00:00 4,9 4,7 9 5 ENE 1028,4 10 -
16.02.2020 00:00:00 5,0 5,0 11 6 E - 10 -
15.02.2020 23:00:00 5,0 4,0 11 6 E - 10 -
15.02.2020 22:00:00 5,5 4,9 8 4 E 1027,5 15 0,0
15.02.2020 21:00:00 7,0 5,0 5 3 NE - 10 -
15.02.2020 20:00:00 - - - - - - - -
15.02.2020 19:00:00 10,5 6,3 5 3 N 1026,6 10 -
15.02.2020 18:00:00 13,0 7,0 11 6 OSO - 10 -
15.02.2020 17:00:00 15,0 7,0 16 9 OSO - 10 -
15.02.2020 16:00:00 15,3 8,7 21 11 OSO 1024,6 10 0,0
15.02.2020 15:00:00 16,0 8,0 24 13 O - 10 -
15.02.2020 14:00:00 16,0 8,0 26 14 O - 10 -
15.02.2020 13:00:00 16,7 6,6 16 9 OSO 1023,7 15 -
15.02.2020 12:00:00 16,0 8,0 16 9 OSO - 10 -
15.02.2020 11:00:00 15,0 7,0 15 8 SO - 10 -
15.02.2020 10:00:00 15,0 7,1 13 7 SSO 1023,5 15 0,0
15.02.2020 09:00:00 13,0 7,0 4 2 - - 10 -
15.02.2020 08:00:00 9,0 6,0 8 4 - - 10 -
15.02.2020 07:00:00 8,1 5,1 4 2 - 1021,8 15 -
15.02.2020 06:00:00 12,0 6,0 15 8 SSO - 10 -
15.02.2020 05:00:00 9,0 7,0 4 2 - - 10 -
15.02.2020 04:00:00 9,7 6,6 4 2 N 1020,1 10 0,0

tt = Temperatura
td = dewpoint
ff = velocità del vento
dd = direzione del vento
ppp = reduced air pressure
vv = visibility
rr = precipitazioni

Stazioni seguenti

WeatherPro
AMSI
MeteoEarth